Vorticity
7 7 7 7 7 7 7 7 7 7 6 6 6 6 5 5 5 5 5 6 6 6 6 6 6 6 6 6 6 6 6 6 6 5 5 5 5 5 5 4 4 4 4 4 4 4 4 4 4 4 4 4 4 4 4 4 4 4 5 5 5 5 5 5 5 5 5 5 5 5 5 5 5 6 6 6 6 7 7 7 7 8 8 8 8 8 9 9 9 8 8 8 8 7 7 7 7 7 6 6 6 6 6
8 8 8 7 7 7 7 7 7 7 6 6 6 6 5 5 5 5 6 6 6 6 6 6 6 6 6 5 5 5 5 5 5 5 5 5 4 4 4 4 4 4 4 4 4 4 4 4 4 3 3 3 3 3 3 3 4 4 4 4 4 4 4 4 4 4 4 4 4 4 4 4 4 4 4 4 4 5 5 5 5 6 6 7 7 7 8 8 8 9 9 9 9 9 9 8 8 8 7 7 7 7 7
8 8 8 8 7 7 7 7 7 6 6 6 6 6 6 6 6 6 6 6 6 7 7 6 6 5 5 5 4 4 4 4 4 4 4 4 4 4 4 4 4 4 4 4 4 3 3 3 3 3 3 3 3 3 3 3 3 3 3 3 3 3 3 3 3 3 3 3 3 3 3 3 3 3 3 3 3 3 3 3 3 4 4 4 5 5 6 6 7 7 8 8 8 9 9 9 9 9 9 8 8 8 8
8 8 8 7 7 7 7 7 6 6 6 6 6 6 6 6 6 6 7 7 7 7 7 7 6 5 4 4 4 3 3 3 3 3 3 3 3 3 3 4 4 4 4 4 3 3 3 3 3 3 3 3 3 3 3 3 3 3 3 3 3 3 2 2 2 2 3 2 2 2 2 2 3 3 3 3 3 3 2 2 2 2 3 3 3 3 3 4 4 4 5 5 6 7 7 8 8 8 9 9 9 9 8
8 8 8 7 7 7 7 6 6 6 6 6 6 6 6 6 6 7 7 7 7 7 7 7 6 5 4 3 3 3 3 2 2 2 2 2 3 3 3 3 3 3 3 3 3 3 3 3 3 4 4 4 4 4 3 4 3 3 3 3 3 3 3 3 3 3 3 3 3 3 3 3 3 3 3 3 3 3 3 3 3 3 3 3 3 3 3 3 3 3 3 3 4 4 4 5 5 6 6 7 7 7 8
8 7 7 7 7 7 7 6 6 6 6 6 6 6 6 7 7 7 7 7 7 7 7 7 6 5 4 4 3 3 3 3 3 2 2 2 2 3 3 3 3 3 3 3 3 3 3 3 4 4 4 4 4 4 4 4 4 4 4 4 4 4 3 3 3 3 3 4 4 4 4 4 4 4 4 4 4 4 4 4 4 4 4 4 4 4 4 4 3 3 3 3 3 3 3 3 3 4 4 4 5 5 5
7 7 7 7 7 7 6 6 6 6 6 6 6 6 7 7 7 7 7 7 7 7 6 6 6 5 5 4 3 3 3 3 3 3 3 3 2 2 3 3 3 3 3 3 3 3 3 4 4 4 4 4 4 4 4 4 4 4 4 4 4 4 4 4 4 4 4 4 4 4 4 4 4 4 4 4 4 4 4 4 4 4 4 4 4 4 4 4 4 4 4 4 4 4 4 4 4 3 3 3 3 4 4
7 7 7 7 6 6 6 6 6 6 6 6 6 6 7 7 7 7 7 7 7 6 6 5 5 5 4 4 4 3 3 3 3 3 3 3 3 3 3 3 3 3 3 3 3 4 4 4 4 4 4 4 4 4 4 4 4 4 4 4 4 4 4 4 4 4 4 4 4 4 4 4 4 4 4 4 4 4 4 4 4 4 4 4 4 4 4 4 4 4 4 5 5 5 5 4 4 4 4 4 4 4 4
7 7 7 6 6 6 6 6 6 6 6 6 6 6 7 7 7 7 7 7 6 5 5 4 4 4 4 3 3 3 3 3 3 3 3 4 4 4 3 3 3 3 3 4 4 4 4 4 4 4 4 4 4 4 4 4 4 4 4 4 4 4 4 4 4 4 4 4 4 4 4 4 4 4 4 4 4 4 4 4 4 4 4 4 4 4 4 4 4 4 4 4 4 4 4 5 5 4 4 4 4 4 4
7 6 6 6 6 6 6 6 6 6 6 6 6 6 7 7 7 7 7 6 5 4 4 3 3 3 3 3 3 3 3 3 3 4 4 4 4 4 4 4 4 4 4 4 4 4 4 3 3 3 3 3 3 3 3 3 3 3 3 3 3 3 3 3 3 3 3 3 3 3 3 3 3 3 3 3 4 4 4 4 4 4 4 4 4 4 4 3 3 4 4 4 4 4 4 4 4 4 4 4 4 4 4
6 6 6 6 6 6 6 6 6 6 6 6 7 7 6 7 6 6 6 5 4 3 3 2 2 2 2 2 2 3 3 3 4 4 4 4 4 5 5 5 4 4 4 4 4 4 4 3 3 3 3 3 3 3 3 3 3 3 3 3 3 3 3 3 3 3 3 3 3 3 3 3 3 3 3 3 3 3 3 3 3 3 3 3 3 3 3 3 3 3 3 3 3 3 3 4 4 4 4 4 4 4 4
6 6 6 6 6 5 6 6 6 6 6 6 7 7 7 6 6 6 5 4 3 3 2 2 2 2 2 2 2 3 3 3 4 4 4 4 5 5 5 5 5 5 4 4 4 4 4 3 3 3 3 3 3 3 3 3 3 3 3 3 3 3 3 3 3 3 3 3 3 3 3 3 3 2 2 2 2 2 2 3 3 3 3 3 3 3 3 3 3 3 3 3 3 3 3 3 3 3 3 3 3 3 4
6 6 6 6 6 5 5 6 6 6 6 6 7 7 7 7 6 5 5 4 3 2 1 1 1 1 1 1 2 2 3 3 3 4 4 4 4 4 5 5 5 5 4 4 4 4 4 3 3 3 3 3 3 3 3 3 3 3 3 3 2 2 2 2 2 2 2 2 2 2 2 2 2 2 2 2 2 2 2 2 2 2 2 2 2 2 3 3 3 3 3 3 3 3 3 3 3 3 3 3 3 3 3
6 6 6 6 5 5 5 5 6 6 6 6 6 7 7 6 6 5 4 3 3 2 1 1 1 1 1 1 2 2 3 3 3 4 4 4 4 4 4 4 4 4 4 4 4 4 4 3 3 3 3 3 3 3 3 3 3 3 2 2 2 2 2 2 2 2 2 2 2 2 2 2 2 2 2 2 2 2 2 2 2 2 2 2 2 2 2 2 2 2 2 2 3 3 3 3 3 3 3 3 3 3 3
6 6 6 5 5 5 5 5 5 6 6 6 6 6 6 6 6 5 4 3 3 2 1 1 1 1 1 1 2 2 3 3 3 3 3 3 3 3 3 4 4 4 4 4 3 3 3 3 3 3 3 3 3 3 3 3 3 2 2 2 2 2 2 2 2 2 2 2 2 2 2 2 2 2 2 2 2 2 2 2 2 2 2 2 2 2 2 2 2 2 2 2 2 3 3 3 3 3 3 3 3 4 4
6 6 5 5 5 5 5 5 5 5 6 6 6 6 6 6 6 5 4 3 2 2 1 1 1 1 1 1 2 2 2 3 3 3 3 3 3 3 3 3 3 3 3 3 3 3 3 3 3 3 3 3 3 3 3 3 3 2 2 2 2 2 2 2 2 2 2 2 2 2 2 2 2 2 2 2 2 2 2 2 2 2 2 2 2 2 2 2 2 2 2 2 2 2 3 3 3 3 3 3 3 4 4
6 6 6 5 5 5 5 5 5 5 5 6 6 6 6 6 5 5 4 3 2 2 1 1 1 1 1 1 2 2 2 3 3 3 3 3 3 3 3 3 3 3 3 3 3 3 3 3 3 3 3 2 2 2 2 2 2 2 2 2 2 2 2 2 2 2 2 2 2 2 2 2 3 3 2 2 2 2 2 2 2 2 2 2 2 2 2 2 2 2 2 2 2 2 3 3 3 3 3 3 3 4 4
6 6 6 6 5 5 5 5 5 5 5 5 6 6 6 6 5 5 4 3 2 2 1 1 1 1 1 1 2 2 2 3 3 3 3 3 3 3 3 3 3 3 3 3 3 3 2 2 2 2 2 2 2 2 2 2 2 2 2 2 2 2 2 2 2 2 2 2 2 2 3 3 3 3 3 3 3 3 3 3 3 3 3 3 3 3 3 3 3 3 3 3 3 3 3 3 3 3 3 3 3 4 4
6 6 6 6 6 5 5 5 5 5 5 5 5 5 5 5 5 4 4 3 2 2 1 1 1 1 1 1 2 2 2 2 3 3 3 3 3 3 3 3 3 3 3 3 3 3 2 2 2 2 2 2 2 2 2 2 2 2 2 2 2 2 2 2 2 2 2 2 2 3 3 3 3 3 3 3 3 3 3 3 3 3 3 3 3 3 3 3 3 3 3 3 3 3 3 3 3 3 3 3 3 3 4
6 6 6 6 6 6 6 6 6 6 5 5 5 5 5 5 5 4 4 3 3 2 2 1 1 1 1 1 2 2 2 2 2 2 2 3 3 3 3 3 3 3 3 3 2 2 2 2 2 2 2 2 2 2 2 2 2 2 2 2 2 2 2 2 2 2 2 2 2 3 3 3 3 3 3 3 3 3 3 3 3 3 3 3 3 3 3 3 3 3 3 3 3 3 3 3 3 3 3 3 3 3 3
6 6 6 6 6 6 6 6 6 6 6 6 5 5 5 5 5 4 4 3 3 2 2 2 1 1 1 1 1 2 2 2 2 2 2 2 2 2 2 2 2 3 3 2 2 2 2 2 2 2 2 2 2 2 2 2 2 2 2 2 2 2 2 2 2 2 2 2 2 2 3 3 3 3 3 3 3 3 3 3 3 3 3 3 3 3 3 3 3 3 3 3 3 3 3 3 3 3 3 3 3 3 3
5 6 6 6 6 6 6 6 6 6 6 6 6 6 5 5 5 4 4 3 3 2 2 2 1 1 1 1 1 1 2 2 2 2 2 2 2 2 2 2 2 2 2 2 2 2 2 2 2 2 2 2 2 2 2 2 2 2 2 2 2 2 2 2 2 2 2 2 2 3 3 3 3 3 3 3 3 3 3 3 3 3 3 3 3 3 3 4 4 3 3 3 3 3 3 3 3 3 3 3 3 3 3
4 5 6 6 6 6 6 6 6 6 6 6 6 6 5 5 5 4 4 3 3 2 2 1 1 1 1 1 1 1 1 1 1 1 2 2 2 2 2 2 2 2 2 2 2 2 2 2 2 2 2 2 2 2 2 2 2 2 2 2 2 2 2 2 2 2 2 3 3 3 3 3 3 3 3 3 3 3 3 3 3 3 3 3 3 3 4 4 4 4 4 4 4 4 4 3 3 3 4 3 3 3 3
4 4 5 5 6 6 6 6 6 6 5 6 6 6 5 5 5 5 4 4 3 2 2 2 1 1 1 1 1 1 1 1 1 1 1 1 2 2 2 2 2 2 2 2 2 2 2 2 2 2 2 2 2 2 2 2 2 2 2 2 2 2 2 2 2 2 3 3 3 3 3 3 3 3 3 3 3 3 3 3 3 3 3 3 3 3 4 4 4 4 4 4 4 3 3 3 3 3 4 3 3 3 3
3 3 4 5 5 6 6 6 6 6 5 5 6 6 5 5 5 5 4 4 3 3 2 2 1 1 1 1 1 1 1 1 1 1 1 1 1 2 2 2 2 2 2 2 2 2 2 2 2 2 2 2 2 2 2 2 2 2 2 2 2 2 2 2 2 3 3 3 3 3 3 3 3 3 3 3 3 3 3 3 3 3 3 3 3 3 3 3 3 4 4 4 3 3 3 3 3 3 3 3 3 3 3
2 3 3 4 5 5 5 6 6 6 6 5 6 6 5 5 5 5 5 4 4 3 3 2 2 1 1 1 1 1 1 1 1 1 1 2 2 1 2 2 2 2 2 2 2 2 2 2 2 2 2 2 2 2 2 2 2 2 2 2 2 2 2 2 2 3 3 3 3 3 3 3 3 3 3 3 3 3 3 3 3 3 3 3 3 3 3 3 3 3 3 3 3 3 3 3 3 3 3 3 3 3 3
2 3 3 3 4 4 5 6 6 6 6 6 6 6 6 5 5 5 5 5 4 4 3 3 2 2 1 1 1 1 1 1 1 1 1 1 1 2 2 2 2 2 2 2 2 2 2 2 2 2 2 2 2 2 2 2 2 2 3 2 2 2 2 2 2 3 3 3 3 3 3 3 3 3 3 3 3 3 2 3 3 3 3 3 3 3 3 3 3 3 3 3 3 3 3 3 3 3 3 3 3 3 3
3 3 3 3 3 3 4 5 5 6 6 6 6 6 6 6 6 5 5 5 5 4 4 3 3 2 2 2 1 1 1 1 1 1 1 1 1 1 1 1 2 2 2 2 2 2 2 2 2 2 2 2 2 2 2 3 3 3 3 2 2 2 2 2 2 2 2 3 3 2 2 3 3 3 3 3 3 3 3 3 3 3 3 3 3 3 3 3 3 3 3 3 3 3 3 3 3 3 3 3 3 3 3
3 3 3 3 3 3 4 4 5 5 5 6 6 6 7 7 6 6 6 6 5 5 4 4 4 3 3 2 2 2 1 1 1 1 1 1 1 1 1 1 1 2 2 2 2 2 2 2 2 2 2 2 2 2 2 2 3 3 3 3 3 3 3 3 3 3 3 3 3 3 3 3 3 3 3 3 3 3 3 3 3 3 3 3 3 3 3 3 3 4 4 4 4 4 4 4 3 3 3 3 3 3 3
3 3 3 3 3 3 3 4 4 4 5 5 6 6 6 7 7 6 6 6 6 6 5 5 5 4 4 3 3 3 2 2 2 1 1 1 1 1 1 1 1 1 2 2 2 2 2 2 2 2 2 2 2 2 2 2 2 2 2 3 3 3 3 3 3 3 3 3 3 3 3 3 3 3 3 3 3 3 3 3 3 3 3 3 3 3 4 4 4 4 4 4 4 4 4 4 4 4 4 3 3 3 3
3 3 3 3 3 4 3 3 4 4 4 5 5 5 6 6 6 7 6 6 6 6 6 6 6 5 5 4 4 4 3 3 2 2 2 2 2 2 2 2 1 1 1 1 2 2 2 2 2 2 2 2 2 2 2 2 2 2 2 2 3 3 3 3 3 3 3 3 3 3 3 3 3 3 3 3 3 3 3 4 4 4 4 4 4 4 4 4 4 5 5 5 5 5 5 5 5 4 4 4 4 3 3
3 3 3 3 3 4 4 4 4 4 4 4 4 5 5 5 6 6 6 6 6 6 6 6 6 6 6 5 5 5 4 4 4 3 3 3 3 2 2 2 2 2 2 2 2 2 2 2 2 2 2 2 2 2 2 2 2 2 2 2 3 3 3 3 3 3 3 3 3 3 3 3 3 4 4 4 4 4 4 4 4 4 4 4 5 5 5 5 5 5 5 5 5 5 5 5 5 5 5 4 4 4 3
3 3 4 4 4 3 4 4 4 4 4 4 4 4 4 5 5 5 5 6 6 7 7 7 7 6 6 6 6 6 5 5 5 4 4 4 4 4 3 3 3 3 2 2 2 2 2 2 2 2 2 2 2 2 2 2 2 2 2 3 3 3 3 3 3 3 3 3 3 4 4 4 4 4 4 4 4 4 5 5 5 5 5 5 5 5 5 5 5 5 5 6 6 6 6 6 6 6 5 5 5 4 4
4 4 4 4 4 4 4 5 5 4 4 4 4 4 4 4 5 5 5 5 6 6 7 7 7 7 7 7 7 7 7 7 6 6 5 5 5 5 5 4 4 4 4 3 3 3 3 3 3 3 3 3 2 2 2 2 2 3 3 3 3 3 3 3 3 3 4 4 4 4 4 4 4 5 5 5 5 5 5 5 5 5 5 5 5 5 6 6 6 6 6 6 6 6 6 6 6 6 6 6 5 5 4
5 5 5 5 5 5 5 5 5 5 4 4 5 5 4 4 4 5 5 5 5 6 7 7 7 7 8 8 8 8 8 8 8 8 7 7 7 7 6 6 6 6 5 5 5 4 4 4 4 4 4 3 3 3 3 3 3 3 3 4 4 4 4 4 4 4 4 4 5 5 5 5 5 5 5 5 5 5 5 5 5 5 5 6 6 6 6 6 6 6 6 6 6 6 6 6 6 6 6 6 6 6 5
5 5 5 5 5 6 6 6 6 5 5 5 5 5 5 4 4 4 5 5 5 5 6 6 7 7 7 8 8 8 8 8 8 9 9 9 8 8 8 8 8 7 7 7 7 6 6 6 6 5 5 5 5 5 5 5 5 5 5 5 5 5 5 5 5 5 5 5 5 5 5 5 5 5 5 5 5 5 5 5 5 5 5 5 5 5 5 5 5 5 5 5 6 6 6 6 6 6 6 6 6 6 6
6 6 6 7 6 6 7 7 7 6 6 6 6 6 6 6 5 5 5 5 6 5 5 6 6 7 7 7 7 7 8 8 8 8 9 9 9 9 9 8 8 8 8 8 8 8 8 7 7 7 7 7 7 7 6 6 6 6 6 6 6 6 6 6 6 6 6 6 5 5 5 5 5 5 5 5 5 5 5 5 5 5 5 5 5 5 5 5 5 5 5 5 5 5 5 5 6 6 6 6 6 6 6
6 6 7 7 7 7 7 7 7 7 7 7 7 7 7 7 7 7 6 7 6 6 6 6 6 6 7 7 7 7 7 7 7 8 8 8 8 8 8 8 8 8 8 8 8 8 8 8 8 8 8 8 7 7 7 7 7 7 7 7 6 6 6 6 6 6 6 6 5 5 5 5 5 5 5 5 5 5 5 5 5 5 5 5 4 4 4 4 4 5 5 5 5 5 5 5 5 5 5 6 6 6 6
6 6 6 7 8 8 8 7 8 8 7 8 8 9 9 8 8 8 8 8 8 7 7 7 7 7 7 7 7 7 7 7 7 7 7 7 8 8 8 8 8 8 8 8 8 8 8 7 7 7 7 7 7 7 7 7 7 7 6 6 6 6 6 6 6 6 6 5 5 5 5 5 5 5 5 4 4 4 4 4 4 4 4 4 4 4 4 4 4 4 4 4 4 4 4 4 5 5 5 5 5 5 5
6 6 5 6 7 7 7 7 7 7 7 8 8 9 9 9 9 9 9 9 9 9 9 8 8 8 8 8 8 7 7 7 7 7 7 7 7 7 7 7 7 7 7 7 7 7 7 7 7 7 7 6 6 6 6 6 6 6 6 6 6 6 5 5 5 5 5 5 5 5 5 5 5 4 4 4 4 4 4 4 4 3 4 4 4 4 4 4 4 4 4 4 4 4 4 4 4 4 4 4 5 5 5
6 6 5 5 5 5 6 6 6 6 6 7 7 7 8 8 8 9 9 9 9 9 9 9 9 9 9 9 9 8 8 8 8 8 8 8 8 7 7 7 7 7 7 7 7 7 7 7 7 7 7 6 6 6 6 6 6 6 6 5 5 5 5 5 5 5 5 5 5 5 5 5 4 4 4 4 4 4 4 3 3 3 3 3 3 3 3 3 3 3 3 3 3 3 3 3 3 3 3 4 4 4 4
7 6 6 5 5 5 5 5 5 5 5 5 5 6 6 6 7 7 7 8 8 8 8 8 8 8 9 9 9 9 9 9 9 8 9 8 8 8 8 8 8 8 7 7 7 7 8 8 8 7 7 7 7 7 7 6 6 6 6 6 6 6 5 5 5 5 5 5 5 4 4 4 4 4 4 4 4 3 3 3 3 3 3 3 3 3 3 3 3 3 3 3 3 3 3 3 3 3 3 3 3 3 3
7 7 7 7 7 6 6 6 6 5 5 5 5 5 5 5 5 5 6 6 6 6 6 6 7 7 8 8 8 8 8 8 8 8 8 9 9 9 9 9 8 8 8 8 8 8 8 8 8 8 8 8 8 7 7 7 7 7 7 7 7 6 6 6 6 6 6 5 5 5 5 5 4 4 4 4 4 3 3 3 3 3 3 3 3 3 3 3 3 3 3 3 3 3 3 3 3 3 3 3 3 3 3
7 7 7 7 7 7 7 7 7 7 6 6 6 5 5 5 5 5 5 5 5 5 5 5 5 6 6 6 6 7 7 7 7 7 7 7 7 8 8 8 8 8 9 8 8 9 9 9 9 9 9 8 8 8 8 8 8 8 8 8 8 8 7 7 7 7 7 6 6 6 5 5 5 5 5 4 4 4 3 3 3 3 3 3 4 4 4 4 4 4 4 3 3 3 3 3 3 3 3 3 3 3 3
8 7 7 6 6 6 6 6 6 6 6 6 6 6 6 6 5 5 5 5 4 5 5 5 5 4 4 5 5 5 5 5 5 5 5 5 5 5 6 6 7 7 8 8 8 8 8 9 9 9 9 9 8 9 9 9 9 9 9 8 8 8 8 8 8 8 8 7 7 7 7 6 6 6 6 5 5 5 5 4 4 4 4 4 4 4 4 4 4 4 4 4 4 4 4 4 4 3 3 3 3 3 3
13 12 11 10 9 7 7 6 5 5 5 5 5 5 5 5 5 5 5 5 4 4 5 5 5 4 4 4 4 3 3 3 3 4 4 4 4 4 4 5 5 6 7 7 7 8 8 8 8 9 9 9 9 9 9 8 9 9 8 8 8 8 8 8 9 8 8 8 8 8 8 8 7 7 7 7 7 7 6 6 6 5 5 5 5 5 5 5 5 5 5 5 5 5 5 5 5 4 4 4 4 4 4
19 18 17 16 15 13 12 10 9 8 7 7 6 6 6 6 5 5 5 5 5 5 5 5 5 5 5 5 4 4 4 5 5 5 5 6 6 6 6 7 7 7 7 8 8 8 8 9 9 9 9 9 9 9 9 9 9 9 8 9 9 8 8 9 9 9 9 9 9 8 8 8 8 8 8 8 8 8 8 8 8 7 7 7 7 6 6 6 6 6 6 6 6 6 6 6 6 6 6 6 5 5 5
22 22 22 21 21 20 20 18 17 16 14 13 13 12 11 10 10 9 9 9 8 8 8 8 8 8 8 8 8 9 9 9 9 9 10 10 10 10 10 10 10 9 9 10 10 10 10 10 11 11 10 10 10 10 9 10 9 9 9 10 9 9 9 9 9 9 9 9 9 9 9 10 10 10 10 10 10 10 9 9 9 9 9 9 9 9 9 9 9 9 9 9 9 9 9 9 9 9 8 8 8 8 7
20 21 21 22 22 22 23 22 22 21 21 20 20 19 18 17 16 16 15 15 14 14 14 13 13 13 13 13 14 14 15 15 14 14 14 14 14 14 14 13 13 12 13 13 13 12 12 12 13 13 13 12 12 11 11 11 11 11 11 11 11 11 11 11 11 11 11 11 11 11 11 11 11 12 12 12 12 12 12 12 12 12 12 12 12 12 12 12 12 12 12 12 12 12 12 12 12 12 12 12 11 11 11
12 13 14 15 16 17 18 18 19 20 20 20 20 20 20 20 20 20 19 19 19 18 17 17 18 17 17 17 17 17 17 16 15 14 15 15 14 13 13 14 14 13 13 13 13 12 11 12 13 13 13 13 13 13 13 13 13 13 14 13 13 13 13 13 13 13 12 13 13 13 13 13 13 13 14 14 14 14 14 14 14 14 14 14 14 14 14 14 15 15 15 15 15 14 14 14 14 15 15 15 15 15 15
4 5 5 6 7 8 9 10 11 11 12 13 14 15 15 16 16 17 17 17 17 17 16 15 16 16 16 15 14 13 13 13 12 11 11 12 11 10 10 8 8 8 9 9 9 10 9 9 9 9 10 11 12 13 14 14 14 15 15 14 14 14 14 14 14 14 13 14 14 14 14 14 14 14 14 14 14 14 14 14 14 15 15 15 14 14 14 15 15 15 16 16 15 15 15 15 15 15 16 16 17 17 18
-0 -0 0 0 1 1 2 2 3 4 4 5 5 6 7 7 8 8 9 9 9 9 10 9 8 8 9 8 7 6 7 7 8 8 8 7 7 7 6 6 7 7 5 4 5 6 7 7 5 3 3 5 6 7 7 8 8 9 10 11 11 12 12 13 13 13 12 12 12 12 12 13 13 13 12 12 12 12 12 12 12 12 12 12 12 12 12 12 12 12 12 13 13 13 13 13 13 14 14 15 15 16 16
1 0 0 0 0 -0 -0 -0 0 1 1 1 1 1 1 1 1 1 2 2 2 3 3 4 4 3 3 3 3 2 1 1 2 3 4 3 3 4 5 5 5 6 4 4 3 2 1 3 3 1 -1 -2 -2 -1 -0 0 1 1 1 3 4 5 5 6 7 7 8 8 8 8 8 8 9 9 9 9 9 9 9 9 9 8 8 8 8 8 8 7 7 7 7 8 8 9 9 10 10 10 10 11 11 11 12
3 3 3 3 2 2 2 1 1 1 1 1 1 1 0 0 0 0 -0 0 0 0 1 1 1 1 2 2 1 1 1 0 -0 -0 0 0 1 2 3 3 2 2 2 2 4 4 1 -1 2 4 2 -1 -2 -2 -2 -2 -2 -2 -2 -2 -2 -2 -1 -1 -0 0 1 2 2 2 2 3 3 3 4 5 5 5 5 5 5 5 5 5 5 5 4 4 4 3 3 4 4 5 5 5 6 6 6 7 7 7 7
5 5 5 5 4 4 4 4 3 3 3 3 2 2 1 1 1 1 1 0 0 0 0 0 0 0 1 1 1 1 1 1 1 0 -0 -1 -1 -0 1 2 2 3 3 2 2 4 5 3 2 3 5 3 1 0 -2 -3 -3 -3 -3 -3 -3 -3 -3 -3 -3 -3 -2 -2 -1 -1 -1 -1 -1 -1 -0 0 1 1 2 2 2 2 3 3 3 3 3 2 2 2 2 2 2 2 2 3 3 3 3 3 3 3 3
7 6 6 6 6 6 6 6 6 5 5 6 6 5 4 4 3 3 3 3 2 2 2 1 1 1 1 1 1 1 1 2 2 1 1 1 0 0 -0 1 2 3 4 5 4 4 4 3 4 4 4 1 2 3 3 1 -0 -0 -1 -1 -2 -2 -1 -2 -2 -2 -2 -2 -1 -1 -1 -1 -1 -1 -1 -1 -1 -1 -0 -0 0 1 1 1 1 1 1 1 1 1 1 1 1 1 1 1 1 1 1 1 1 1 1
10 9 9 9 8 8 8 8 8 8 8 8 9 9 8 8 7 7 6 6 5 5 5 4 4 3 3 3 3 2 2 2 3 4 3 3 2 2 2 3 3 3 2 2 2 2 2 2 4 6 6 3 3 4 6 6 5 5 5 4 4 3 3 3 2 2 1 1 1 1 1 0 0 0 0 -0 -1 -1 -1 -1 -0 0 1 1 1 1 1 1 1 1 1 1 1 1 0 1 1 1 1 1 1 1 1
11 11 10 10 10 10 10 10 9 9 9 9 10 10 10 10 9 9 8 8 8 8 7 7 7 7 6 6 6 5 5 5 5 5 6 5 5 5 4 5 6 6 6 5 4 4 3 5 6 6 5 7 6 5 5 6 7 7 7 7 7 7 7 7 7 6 5 5 4 4 4 3 2 2 2 2 1 1 0 -0 -0 0 1 1 1 1 1 1 1 1 1 1 1 1 0 0 0 1 1 1 1 1 0
10 10 10 10 10 10 10 10 10 10 9 9 9 9 9 9 10 10 10 10 10 9 9 9 9 9 9 8 8 8 8 8 7 6 6 7 7 7 7 6 6 6 7 7 8 7 6 7 8 8 7 8 8 8 6 7 7 8 8 7 7 7 8 8 8 8 8 8 7 7 7 7 6 5 5 5 5 4 4 3 2 2 2 3 3 3 3 2 2 2 2 2 2 1 1 1 1 1 1 1 1 1 1
10 10 10 10 10 9 9 9 9 9 9 9 9 9 9 9 10 10 10 10 10 10 9 9 9 9 9 9 9 9 9 9 8 8 7 9 10 10 8 7 7 6 7 7 7 8 8 9 8 8 9 9 9 9 9 8 8 9 10 9 9 9 9 10 10 11 12 12 12 12 12 12 12 11 11 10 10 10 9 9 8 7 7 7 7 7 7 6 6 5 5 4 4 4 4 4 4 4 3 3 3 3 2
10 10 9 9 9 9 9 9 9 9 9 9 9 9 9 9 9 9 9 9 9 9 9 9 9 9 9 9 9 9 10 9 9 9 10 9 10 10 10 9 8 8 7 8 8 9 10 11 10 10 10 11 12 13 12 11 11 12 14 14 14 14 13 12 13 14 15 16 16 17 17 18 18 18 18 17 17 17 17 17 16 16 15 14 14 14 13 13 12 12 11 11 10 10 9 9 9 9 8 8 8 7 7
Height
3185 3185 3185 3185 3185 3185 3185 3185 3185 3184 3184 3184 3184 3184 3184 3184 3184 3184 3184 3184 3184 3184 3184 3184 3184 3184 3184 3184 3184 3184 3184 3184 3184 3184 3184 3184 3184 3184 3184 3184 3184 3184 3184 3184 3184 3184 3184 3184 3185 3185 3185 3185 3185 3185 3185 3185 3185 3185 3185 3185 3184 3184 3184 3184 3184 3184 3184 3184 3184 3184 3184 3184 3183 3183 3183 3183 3183 3183 3183 3183 3183 3183 3183 3183 3183 3183 3183 3183 3182 3182 3182 3182 3182 3182 3182 3182 3182 3182 3181 3181 3181 3181 3181
3185 3185 3184 3184 3184 3184 3184 3184 3184 3184 3184 3184 3184 3184 3184 3184 3184 3184 3184 3184 3184 3184 3184 3184 3184 3184 3184 3183 3183 3183 3183 3183 3184 3184 3184 3184 3184 3184 3184 3184 3184 3184 3184 3184 3184 3184 3184 3184 3184 3184 3184 3184 3184 3184 3184 3184 3184 3184 3184 3184 3184 3184 3184 3184 3184 3184 3184 3184 3184 3184 3184 3183 3183 3183 3183 3183 3183 3183 3183 3183 3183 3183 3183 3183 3182 3182 3182 3182 3182 3182 3182 3182 3182 3181 3181 3181 3181 3181 3181 3181 3181 3181 3181
3184 3184 3184 3184 3184 3184 3184 3184 3184 3184 3184 3184 3184 3184 3184 3184 3184 3184 3184 3184 3184 3184 3184 3184 3184 3183 3183 3183 3183 3183 3183 3183 3183 3183 3183 3183 3183 3183 3183 3183 3183 3183 3184 3184 3184 3184 3184 3184 3184 3184 3184 3184 3184 3184 3184 3184 3184 3184 3184 3184 3184 3184 3184 3183 3183 3183 3183 3183 3183 3183 3183 3183 3183 3183 3183 3183 3183 3183 3183 3183 3183 3182 3182 3182 3182 3182 3182 3182 3182 3182 3181 3181 3181 3181 3181 3181 3181 3181 3180 3180 3180 3180 3180
3184 3184 3184 3184 3184 3184 3184 3184 3184 3184 3184 3184 3184 3184 3184 3184 3184 3184 3183 3183 3183 3183 3183 3183 3183 3183 3183 3183 3183 3183 3183 3183 3183 3183 3183 3183 3183 3183 3183 3183 3183 3183 3183 3183 3183 3183 3183 3183 3183 3183 3183 3183 3183 3183 3183 3183 3183 3183 3183 3183 3183 3183 3183 3183 3183 3183 3183 3183 3183 3183 3183 3183 3183 3183 3183 3183 3182 3182 3182 3182 3182 3182 3182 3182 3182 3182 3181 3181 3181 3181 3181 3181 3181 3181 3180 3180 3180 3180 3180 3180 3180 3180 3179
3184 3184 3184 3184 3184 3184 3183 3183 3183 3183 3183 3183 3183 3183 3183 3183 3183 3183 3183 3183 3183 3183 3183 3183 3183 3183 3183 3183 3183 3183 3182 3182 3182 3182 3182 3182 3182 3182 3182 3182 3182 3182 3182 3183 3183 3183 3183 3183 3183 3183 3183 3183 3183 3183 3183 3183 3183 3183 3183 3183 3183 3183 3183 3183 3183 3183 3183 3182 3182 3182 3182 3182 3182 3182 3182 3182 3182 3182 3182 3182 3182 3181 3181 3181 3181 3181 3181 3181 3181 3181 3180 3180 3180 3180 3180 3180 3180 3180 3180 3179 3179 3179 3179
3183 3183 3183 3183 3183 3183 3183 3183 3183 3183 3183 3183 3183 3183 3183 3183 3183 3183 3183 3183 3183 3183 3183 3183 3183 3183 3183 3183 3183 3183 3182 3182 3182 3182 3182 3182 3182 3182 3182 3182 3182 3182 3182 3182 3182 3182 3182 3182 3182 3182 3182 3182 3182 3182 3182 3182 3182 3182 3182 3182 3182 3182 3182 3182 3182 3182 3182 3182 3182 3182 3182 3182 3182 3182 3181 3181 3181 3181 3181 3181 3181 3181 3181 3181 3181 3180 3180 3180 3180 3180 3180 3180 3180 3179 3179 3179 3179 3179 3179 3179 3179 3178 3178
3183 3183 3183 3183 3183 3183 3183 3183 3183 3183 3183 3183 3183 3183 3183 3183 3183 3183 3183 3183 3183 3183 3183 3183 3183 3183 3183 3183 3183 3182 3182 3182 3182 3182 3182 3181 3181 3181 3181 3181 3181 3181 3181 3181 3181 3181 3181 3181 3181 3181 3181 3181 3181 3181 3181 3181 3181 3181 3182 3182 3182 3181 3181 3181 3181 3181 3181 3181 3181 3181 3181 3181 3181 3181 3181 3181 3181 3180 3180 3180 3180 3180 3180 3180 3180 3180 3180 3179 3179 3179 3179 3179 3179 3179 3179 3178 3178 3178 3178 3178 3178 3178 3178
3183 3183 3183 3183 3183 3183 3183 3183 3183 3183 3183 3183 3183 3183 3183 3183 3183 3183 3183 3183 3183 3183 3183 3183 3183 3183 3183 3182 3182 3182 3182 3182 3182 3182 3181 3181 3181 3181 3181 3180 3180 3180 3180 3180 3180 3180 3180 3180 3180 3180 3180 3180 3180 3180 3180 3180 3180 3180 3181 3181 3181 3180 3180 3180 3180 3180 3180 3180 3180 3180 3180 3180 3180 3180 3180 3180 3180 3180 3180 3179 3179 3179 3179 3179 3179 3179 3179 3179 3179 3178 3178 3178 3178 3178 3178 3178 3178 3178 3178 3178 3177 3177 3177
3182 3182 3182 3182 3182 3182 3182 3182 3182 3182 3182 3182 3182 3182 3182 3182 3182 3182 3182 3182 3182 3182 3182 3182 3182 3182 3182 3182 3182 3182 3182 3182 3182 3181 3181 3181 3181 3180 3180 3180 3180 3180 3180 3179 3179 3179 3179 3179 3179 3179 3179 3179 3179 3179 3179 3179 3179 3179 3179 3179 3179 3179 3179 3179 3179 3179 3179 3179 3179 3179 3179 3179 3179 3179 3179 3179 3179 3179 3179 3179 3178 3178 3178 3178 3178 3178 3178 3178 3178 3178 3178 3178 3177 3177 3177 3177 3177 3177 3177 3177 3176 3176 3176
3182 3182 3182 3182 3182 3182 3182 3182 3182 3182 3182 3182 3182 3182 3182 3182 3182 3182 3182 3182 3182 3182 3182 3182 3182 3182 3182 3182 3182 3182 3181 3181 3181 3181 3181 3181 3180 3180 3180 3180 3179 3179 3179 3179 3179 3179 3178 3178 3178 3178 3178 3178 3178 3178 3178 3178 3178 3178 3178 3178 3178 3178 3178 3178 3178 3178 3178 3178 3178 3178 3178 3178 3178 3178 3178 3178 3178 3178 3178 3178 3178 3178 3178 3178 3177 3177 3177 3177 3177 3177 3177 3177 3176 3176 3176 3176 3176 3176 3176 3176 3175 3175 3175
3181 3181 3181 3181 3181 3181 3181 3181 3181 3181 3181 3181 3181 3181 3181 3181 3181 3181 3181 3181 3181 3181 3181 3181 3181 3181 3181 3181 3181 3181 3181 3181 3180 3180 3180 3180 3180 3180 3179 3179 3179 3179 3178 3178 3178 3178 3178 3178 3178 3178 3178 3178 3178 3178 3178 3178 3178 3178 3177 3177 3177 3177 3177 3177 3177 3177 3177 3177 3177 3177 3177 3177 3177 3177 3177 3177 3177 3177 3177 3177 3177 3177 3176 3176 3176 3176 3176 3176 3176 3176 3176 3176 3175 3175 3175 3175 3175 3175 3175 3174 3174 3174 3174
3181 3181 3181 3181 3181 3181 3181 3181 3181 3181 3181 3181 3181 3181 3181 3180 3180 3180 3180 3180 3180 3180 3180 3180 3180 3180 3180 3180 3180 3180 3180 3180 3180 3179 3179 3179 3179 3179 3179 3179 3178 3178 3178 3178 3178 3178 3177 3177 3177 3177 3177 3177 3177 3177 3177 3177 3177 3176 3176 3176 3176 3176 3176 3176 3176 3176 3176 3176 3176 3176 3176 3176 3176 3176 3175 3175 3175 3175 3175 3175 3175 3175 3175 3175 3175 3175 3175 3175 3175 3175 3175 3174 3174 3174 3174 3174 3174 3174 3173 3173 3173 3173 3173
3180 3180 3180 3180 3180 3180 3180 3180 3180 3180 3180 3180 3180 3180 3180 3180 3180 3180 3180 3180 3180 3180 3180 3180 3179 3179 3179 3179 3179 3179 3179 3179 3179 3178 3178 3178 3178 3178 3178 3178 3178 3178 3177 3177 3177 3177 3177 3177 3176 3176 3176 3176 3176 3176 3176 3176 3176 3175 3175 3175 3175 3175 3175 3175 3175 3175 3175 3175 3175 3175 3174 3174 3174 3174 3174 3174 3174 3174 3174 3174 3174 3174 3174 3173 3173 3173 3173 3173 3173 3173 3173 3173 3173 3173 3173 3173 3173 3173 3173 3172 3172 3172 3172
3179 3179 3179 3179 3179 3179 3179 3179 3179 3179 3179 3179 3179 3179 3179 3179 3179 3179 3179 3179 3179 3179 3179 3179 3179 3179 3178 3178 3178 3178 3178 3178 3178 3178 3177 3177 3177 3177 3177 3177 3177 3177 3177 3176 3176 3176 3176 3176 3176 3175 3175 3175 3175 3175 3175 3175 3175 3175 3174 3174 3174 3174 3174 3174 3174 3174 3174 3174 3174 3174 3173 3173 3173 3173 3173 3173 3173 3173 3173 3173 3173 3172 3172 3172 3172 3172 3172 3172 3172 3172 3172 3172 3172 3172 3172 3172 3171 3171 3171 3171 3171 3171 3171
3179 3179 3178 3178 3178 3178 3178 3179 3179 3179 3179 3179 3179 3179 3179 3179 3179 3178 3178 3178 3178 3178 3178 3178 3178 3178 3178 3178 3178 3178 3177 3177 3177 3177 3176 3176 3176 3176 3176 3176 3176 3176 3175 3175 3175 3175 3175 3175 3175 3174 3174 3174 3174 3174 3174 3174 3174 3174 3174 3173 3173 3173 3173 3173 3173 3173 3173 3173 3173 3173 3173 3173 3173 3172 3172 3172 3172 3172 3172 3171 3171 3171 3171 3171 3171 3170 3170 3170 3170 3170 3170 3170 3170 3170 3170 3170 3170 3170 3170 3170 3170 3169 3169
3178 3178 3178 3178 3178 3178 3178 3178 3178 3178 3178 3178 3178 3178 3178 3178 3178 3178 3178 3178 3178 3178 3178 3177 3177 3177 3177 3177 3177 3177 3176 3176 3176 3176 3176 3175 3175 3175 3175 3175 3174 3174 3174 3174 3174 3174 3174 3174 3173 3173 3173 3173 3173 3173 3173 3173 3173 3173 3173 3173 3173 3173 3173 3173 3172 3172 3172 3172 3172 3172 3172 3172 3172 3171 3171 3171 3171 3171 3170 3170 3170 3170 3170 3169 3169 3169 3169 3169 3169 3169 3168 3168 3168 3168 3168 3168 3168 3168 3168 3168 3168 3168 3168
3177 3177 3177 3177 3177 3177 3177 3177 3177 3177 3177 3177 3177 3177 3177 3177 3177 3177 3177 3177 3177 3177 3177 3176 3176 3176 3176 3176 3176 3176 3176 3175 3175 3175 3175 3174 3174 3174 3174 3173 3173 3173 3173 3173 3173 3173 3173 3173 3173 3172 3172 3172 3172 3172 3172 3172 3172 3172 3172 3172 3172 3171 3171 3171 3171 3171 3171 3171 3171 3171 3171 3170 3170 3170 3170 3170 3170 3170 3169 3169 3169 3169 3168 3168 3168 3168 3168 3168 3167 3167 3167 3167 3167 3167 3167 3167 3167 3167 3167 3166 3166 3166 3166
3176 3176 3176 3176 3176 3176 3176 3176 3176 3176 3176 3176 3176 3176 3176 3176 3176 3176 3176 3176 3176 3175 3175 3175 3175 3175 3175 3175 3175 3175 3175 3175 3174 3174 3174 3173 3173 3173 3173 3173 3173 3172 3172 3172 3172 3172 3171 3171 3171 3171 3171 3171 3171 3171 3171 3171 3170 3170 3170 3170 3170 3170 3170 3170 3170 3170 3170 3170 3170 3169 3169 3169 3169 3169 3169 3169 3169 3168 3168 3168 3168 3168 3168 3167 3167 3167 3167 3166 3166 3166 3166 3166 3165 3165 3165 3165 3165 3165 3165 3165 3165 3164 3164
3175 3175 3175 3175 3175 3174 3174 3174 3174 3174 3175 3175 3175 3175 3175 3175 3175 3174 3174 3174 3174 3174 3174 3174 3174 3174 3174 3174 3174 3174 3173 3173 3173 3173 3173 3173 3172 3172 3172 3172 3171 3171 3171 3171 3170 3170 3170 3170 3170 3170 3170 3169 3169 3169 3169 3169 3169 3169 3169 3169 3169 3169 3169 3169 3168 3168 3168 3168 3168 3168 3168 3168 3168 3168 3168 3168 3167 3167 3167 3167 3167 3166 3166 3166 3166 3166 3165 3165 3165 3165 3164 3164 3164 3164 3164 3164 3163 3163 3163 3163 3163 3163 3163
3174 3174 3174 3174 3174 3173 3173 3173 3173 3173 3173 3173 3173 3173 3173 3173 3173 3173 3173 3173 3173 3173 3173 3173 3173 3173 3173 3173 3173 3172 3172 3172 3172 3172 3172 3171 3171 3171 3171 3170 3170 3170 3170 3169 3169 3169 3169 3169 3168 3168 3168 3168 3168 3168 3168 3168 3168 3168 3168 3168 3167 3167 3167 3167 3167 3167 3167 3167 3167 3167 3167 3166 3166 3166 3166 3166 3166 3166 3165 3165 3165 3165 3165 3165 3164 3164 3164 3164 3163 3163 3163 3163 3163 3163 3162 3162 3162 3162 3162 3162 3162 3162 3161
3174 3174 3173 3173 3173 3173 3173 3172 3172 3172 3172 3172 3172 3172 3172 3172 3172 3172 3172 3172 3172 3172 3171 3171 3171 3171 3171 3171 3171 3171 3171 3171 3170 3170 3170 3170 3170 3170 3169 3169 3169 3168 3168 3168 3168 3168 3168 3167 3167 3167 3167 3167 3167 3167 3166 3166 3166 3166 3166 3166 3166 3166 3166 3166 3166 3165 3165 3165 3165 3165 3165 3165 3165 3164 3164 3164 3164 3164 3164 3164 3164 3163 3163 3163 3163 3163 3163 3163 3162 3162 3162 3162 3161 3161 3161 3161 3161 3160 3160 3160 3160 3160 3160
3173 3173 3173 3173 3172 3172 3172 3172 3171 3171 3171 3171 3171 3171 3171 3171 3171 3171 3171 3171 3170 3170 3170 3170 3170 3170 3170 3170 3169 3169 3169 3169 3169 3169 3168 3168 3168 3168 3168 3168 3167 3167 3167 3166 3166 3166 3166 3166 3166 3165 3165 3165 3165 3165 3165 3165 3165 3164 3164 3164 3164 3164 3164 3164 3164 3164 3164 3163 3163 3163 3163 3163 3163 3163 3163 3163 3163 3163 3162 3162 3162 3162 3162 3162 3161 3161 3161 3161 3161 3160 3160 3160 3160 3159 3159 3159 3159 3159 3159 3159 3158 3158 3158
3172 3172 3172 3172 3171 3171 3171 3171 3170 3170 3170 3170 3169 3169 3169 3169 3169 3169 3169 3169 3169 3169 3169 3169 3168 3168 3168 3168 3168 3168 3168 3168 3167 3167 3167 3167 3167 3166 3166 3166 3165 3165 3165 3165 3164 3164 3164 3164 3164 3164 3164 3164 3164 3163 3163 3163 3163 3163 3163 3163 3163 3163 3163 3163 3162 3162 3162 3162 3162 3162 3162 3161 3161 3161 3161 3161 3161 3161 3160 3160 3160 3160 3160 3160 3160 3159 3159 3159 3159 3159 3158 3158 3158 3158 3158 3158 3157 3157 3157 3157 3157 3157 3157
3171 3171 3171 3171 3170 3170 3170 3170 3169 3169 3169 3169 3168 3168 3168 3168 3168 3168 3168 3168 3168 3168 3167 3167 3167 3167 3167 3167 3166 3166 3166 3166 3166 3166 3165 3165 3165 3165 3164 3164 3164 3163 3163 3163 3163 3163 3162 3162 3162 3162 3162 3162 3162 3162 3162 3162 3161 3161 3161 3161 3161 3161 3161 3161 3161 3161 3160 3160 3160 3160 3160 3160 3159 3159 3159 3159 3159 3159 3158 3158 3158 3158 3158 3158 3158 3158 3158 3157 3157 3157 3157 3157 3157 3156 3156 3156 3156 3155 3155 3155 3155 3155 3155
3170 3170 3169 3169 3169 3169 3169 3169 3168 3168 3168 3168 3168 3167 3167 3167 3167 3166 3166 3166 3166 3166 3166 3166 3166 3165 3165 3165 3165 3165 3164 3164 3164 3164 3164 3163 3163 3163 3163 3163 3162 3162 3162 3161 3161 3161 3161 3160 3160 3160 3160 3160 3160 3160 3160 3160 3160 3159 3159 3159 3159 3159 3159 3159 3159 3159 3159 3158 3158 3158 3158 3158 3158 3158 3157 3157 3157 3157 3157 3157 3156 3156 3156 3156 3156 3156 3156 3155 3155 3155 3155 3155 3154 3154 3154 3154 3154 3153 3153 3153 3153 3153 3153
3168 3168 3168 3168 3168 3168 3168 3168 3167 3167 3167 3167 3166 3166 3166 3165 3165 3165 3165 3164 3164 3164 3164 3164 3164 3164 3164 3163 3163 3163 3163 3163 3163 3162 3162 3162 3162 3162 3161 3161 3161 3160 3160 3159 3159 3159 3159 3159 3158 3158 3158 3158 3158 3158 3158 3158 3158 3158 3158 3158 3158 3158 3157 3157 3157 3157 3157 3157 3157 3157 3156 3156 3156 3156 3155 3155 3155 3155 3155 3154 3154 3154 3154 3154 3154 3153 3153 3153 3153 3153 3153 3153 3153 3152 3152 3152 3152 3152 3151 3151 3151 3151 3151
3167 3167 3167 3167 3166 3166 3166 3166 3166 3166 3165 3165 3165 3165 3164 3164 3164 3163 3163 3163 3163 3163 3163 3163 3163 3162 3162 3162 3162 3162 3161 3161 3161 3161 3161 3160 3160 3160 3160 3159 3159 3158 3158 3158 3158 3157 3157 3157 3157 3157 3157 3156 3156 3156 3156 3156 3156 3156 3156 3156 3156 3156 3156 3155 3155 3155 3155 3155 3155 3155 3154 3154 3154 3154 3153 3153 3153 3153 3153 3153 3152 3152 3152 3152 3152 3151 3151 3151 3151 3151 3151 3150 3150 3150 3150 3150 3150 3149 3149 3149 3149 3149 3149
3166 3166 3166 3165 3165 3165 3165 3164 3164 3164 3164 3164 3163 3163 3163 3163 3163 3162 3162 3162 3161 3161 3161 3161 3161 3161 3160 3160 3160 3160 3159 3159 3159 3159 3159 3158 3158 3158 3158 3158 3157 3157 3157 3156 3156 3156 3155 3155 3155 3155 3155 3155 3155 3155 3155 3154 3154 3154 3154 3154 3154 3154 3154 3154 3153 3153 3153 3153 3153 3153 3153 3153 3152 3152 3152 3152 3151 3151 3151 3151 3150 3150 3150 3150 3149 3149 3149 3149 3149 3148 3148 3148 3148 3148 3148 3148 3148 3147 3147 3147 3147 3147 3147
3164 3164 3164 3164 3163 3163 3163 3163 3163 3163 3162 3162 3162 3162 3162 3161 3161 3161 3160 3160 3160 3160 3159 3159 3159 3158 3158 3158 3158 3158 3158 3158 3158 3157 3157 3157 3157 3157 3156 3156 3156 3155 3155 3155 3154 3154 3154 3153 3153 3153 3153 3153 3153 3153 3153 3153 3153 3153 3152 3152 3152 3152 3152 3152 3152 3152 3151 3151 3151 3151 3151 3150 3150 3150 3150 3150 3149 3149 3149 3148 3148 3148 3148 3148 3147 3147 3147 3147 3147 3146 3146 3146 3146 3146 3145 3145 3145 3145 3145 3145 3144 3144 3144
3163 3163 3162 3162 3162 3162 3162 3161 3161 3161 3160 3160 3160 3160 3160 3159 3159 3159 3159 3158 3158 3158 3158 3158 3157 3157 3157 3157 3156 3156 3156 3156 3155 3155 3155 3155 3155 3155 3154 3154 3154 3153 3153 3153 3153 3153 3152 3152 3152 3151 3151 3151 3151 3151 3151 3151 3151 3151 3151 3150 3150 3150 3150 3150 3150 3150 3149 3149 3149 3149 3149 3148 3148 3148 3148 3148 3147 3147 3147 3147 3146 3146 3146 3145 3145 3145 3145 3145 3144 3144 3144 3144 3143 3143 3143 3143 3143 3143 3143 3142 3142 3142 3142
3161 3161 3161 3161 3160 3160 3160 3160 3159 3159 3159 3158 3158 3158 3158 3158 3158 3157 3157 3157 3157 3156 3156 3156 3156 3155 3155 3155 3155 3154 3154 3153 3153 3153 3153 3153 3153 3153 3153 3152 3152 3152 3151 3151 3151 3150 3150 3150 3150 3150 3149 3149 3149 3149 3149 3149 3149 3149 3149 3148 3148 3148 3148 3148 3148 3148 3148 3148 3147 3147 3147 3147 3146 3146 3146 3146 3145 3145 3145 3144 3144 3144 3143 3143 3143 3143 3143 3142 3142 3142 3142 3142 3141 3141 3141 3141 3140 3140 3140 3140 3140 3139 3139
3160 3159 3159 3159 3159 3158 3158 3158 3158 3158 3157 3157 3157 3157 3156 3156 3156 3155 3155 3155 3155 3155 3154 3154 3154 3153 3153 3153 3153 3153 3152 3152 3152 3152 3152 3151 3151 3151 3151 3150 3150 3150 3149 3149 3148 3148 3148 3148 3148 3148 3148 3147 3147 3147 3147 3147 3147 3147 3147 3147 3146 3146 3146 3146 3146 3146 3146 3146 3145 3145 3145 3144 3144 3144 3143 3143 3143 3143 3143 3142 3142 3142 3141 3141 3141 3140 3140 3140 3140 3139 3139 3139 3139 3138 3138 3138 3138 3138 3138 3138 3137 3137 3137
3158 3158 3158 3158 3157 3157 3157 3157 3157 3156 3156 3155 3155 3155 3155 3154 3154 3154 3153 3153 3153 3153 3153 3153 3152 3152 3152 3151 3151 3151 3151 3150 3150 3150 3150 3150 3149 3149 3149 3148 3148 3148 3147 3147 3147 3147 3146 3146 3146 3146 3146 3145 3145 3145 3144 3144 3145 3145 3145 3145 3144 3144 3144 3144 3144 3144 3144 3143 3143 3143 3143 3142 3142 3142 3141 3141 3141 3140 3140 3140 3139 3139 3139 3139 3138 3138 3138 3138 3137 3137 3137 3137 3136 3136 3136 3136 3136 3135 3135 3135 3135 3135 3134
3157 3157 3156 3156 3156 3156 3155 3155 3155 3154 3154 3154 3154 3153 3153 3153 3153 3153 3152 3152 3152 3151 3151 3151 3150 3150 3150 3149 3149 3149 3149 3148 3148 3148 3148 3148 3148 3147 3147 3146 3146 3146 3145 3145 3145 3144 3144 3144 3144 3144 3143 3143 3143 3143 3142 3142 3142 3143 3143 3143 3143 3142 3142 3142 3141 3141 3141 3141 3141 3141 3140 3140 3140 3139 3139 3138 3138 3138 3138 3137 3137 3137 3136 3136 3136 3135 3135 3135 3135 3134 3134 3134 3134 3133 3133 3133 3133 3133 3133 3133 3132 3132 3132
3156 3155 3155 3155 3155 3154 3154 3154 3153 3153 3153 3152 3152 3152 3152 3151 3151 3151 3151 3150 3150 3150 3149 3149 3149 3148 3148 3148 3148 3147 3147 3147 3146 3146 3146 3146 3146 3145 3145 3144 3144 3143 3143 3143 3143 3142 3142 3142 3142 3142 3141 3141 3141 3140 3140 3140 3140 3140 3140 3140 3140 3140 3139 3139 3139 3139 3139 3139 3138 3138 3138 3138 3137 3137 3137 3136 3136 3135 3135 3135 3134 3134 3134 3133 3133 3133 3133 3132 3132 3132 3132 3131 3131 3131 3131 3130 3130 3130 3130 3130 3129 3129 3129
3154 3154 3154 3154 3153 3153 3153 3153 3152 3152 3151 3151 3151 3150 3150 3150 3149 3149 3149 3149 3148 3148 3148 3147 3147 3147 3146 3146 3146 3145 3145 3145 3144 3144 3144 3144 3143 3143 3142 3142 3142 3141 3141 3141 3140 3140 3139 3139 3139 3139 3139 3139 3138 3138 3138 3137 3137 3137 3138 3138 3138 3137 3137 3137 3136 3136 3136 3136 3136 3135 3135 3135 3135 3134 3134 3133 3133 3133 3132 3132 3132 3131 3131 3131 3130 3130 3130 3129 3129 3129 3129 3128 3128 3128 3128 3128 3128 3127 3127 3127 3127 3127 3127
3153 3153 3153 3152 3152 3152 3152 3151 3151 3150 3150 3149 3149 3149 3149 3148 3148 3148 3147 3147 3147 3146 3146 3145 3145 3145 3144 3144 3144 3143 3143 3143 3142 3142 3142 3142 3141 3141 3140 3140 3139 3138 3138 3138 3138 3138 3137 3137 3137 3137 3136 3136 3136 3136 3135 3135 3134 3134 3135 3135 3135 3134 3134 3134 3134 3133 3133 3133 3133 3133 3132 3132 3132 3132 3131 3131 3130 3130 3129 3129 3129 3128 3128 3128 3128 3127 3127 3127 3126 3126 3126 3126 3125 3125 3125 3125 3124 3124 3124 3124 3124 3124 3123
3151 3151 3151 3151 3151 3150 3150 3149 3149 3148 3148 3148 3147 3147 3147 3147 3146 3146 3145 3145 3145 3144 3144 3143 3143 3143 3142 3142 3142 3141 3141 3140 3140 3140 3140 3139 3139 3138 3138 3137 3137 3136 3136 3136 3135 3135 3135 3135 3134 3134 3134 3133 3133 3133 3133 3132 3132 3132 3132 3132 3131 3131 3131 3131 3131 3131 3130 3130 3130 3129 3129 3129 3129 3128 3128 3128 3128 3127 3127 3126 3126 3125 3125 3125 3124 3124 3124 3124 3123 3123 3123 3123 3123 3122 3122 3122 3122 3121 3121 3121 3121 3121 3121
3150 3150 3149 3149 3149 3149 3148 3148 3147 3147 3146 3146 3145 3145 3145 3145 3144 3144 3143 3143 3143 3142 3142 3141 3141 3141 3140 3140 3139 3139 3139 3138 3138 3137 3137 3137 3136 3136 3135 3135 3134 3133 3133 3133 3133 3133 3133 3132 3132 3132 3131 3131 3130 3130 3130 3129 3129 3129 3129 3128 3128 3128 3128 3128 3128 3128 3127 3127 3127 3126 3126 3126 3126 3125 3125 3125 3124 3124 3123 3123 3123 3123 3122 3122 3122 3121 3121 3121 3120 3120 3120 3120 3119 3119 3119 3118 3118 3118 3118 3118 3118 3118 3118
3148 3148 3148 3148 3148 3147 3147 3146 3145 3145 3144 3144 3143 3143 3143 3143 3142 3142 3142 3141 3141 3140 3139 3139 3138 3138 3138 3138 3137 3137 3136 3136 3135 3135 3134 3134 3133 3133 3133 3132 3131 3131 3130 3130 3130 3130 3130 3129 3129 3129 3128 3128 3127 3127 3127 3127 3127 3126 3126 3125 3125 3125 3125 3125 3124 3124 3124 3123 3123 3123 3123 3123 3123 3122 3122 3122 3121 3121 3120 3120 3120 3119 3119 3119 3118 3118 3118 3118 3117 3117 3117 3117 3116 3116 3116 3115 3115 3115 3115 3114 3114 3114 3114
3147 3147 3146 3146 3146 3145 3145 3144 3144 3143 3142 3142 3142 3141 3141 3140 3140 3140 3139 3139 3138 3138 3137 3137 3136 3136 3136 3135 3135 3134 3134 3133 3133 3132 3132 3131 3131 3130 3129 3129 3128 3128 3128 3127 3127 3127 3127 3127 3126 3126 3125 3125 3124 3124 3123 3124 3123 3123 3123 3122 3122 3122 3121 3121 3121 3121 3120 3120 3120 3120 3120 3120 3119 3119 3118 3118 3118 3118 3117 3117 3117 3116 3116 3116 3115 3115 3115 3115 3114 3114 3113 3113 3113 3113 3112 3112 3112 3112 3111 3111 3111 3111 3111
3146 3145 3145 3145 3144 3144 3143 3143 3142 3141 3140 3140 3140 3139 3139 3138 3138 3138 3137 3137 3136 3135 3135 3134 3133 3133 3133 3133 3132 3131 3131 3130 3130 3129 3129 3128 3128 3127 3126 3126 3125 3125 3124 3124 3124 3123 3123 3123 3123 3123 3122 3122 3121 3121 3121 3121 3120 3120 3119 3119 3119 3118 3118 3118 3118 3118 3117 3117 3117 3116 3116 3116 3116 3116 3115 3115 3114 3114 3113 3113 3113 3113 3113 3113 3112 3112 3112 3111 3111 3111 3110 3110 3110 3109 3109 3109 3108 3108 3108 3108 3108 3107 3107
3144 3143 3143 3143 3143 3142 3141 3141 3140 3139 3138 3138 3138 3137 3137 3136 3136 3135 3135 3134 3134 3133 3132 3132 3131 3130 3130 3130 3129 3129 3128 3128 3127 3126 3126 3125 3125 3124 3123 3123 3122 3122 3121 3121 3120 3120 3120 3120 3120 3120 3119 3118 3118 3118 3118 3117 3117 3117 3116 3116 3115 3115 3115 3114 3114 3114 3114 3113 3113 3113 3112 3112 3112 3112 3112 3112 3111 3110 3110 3110 3109 3109 3109 3109 3109 3109 3108 3108 3108 3108 3107 3107 3106 3106 3106 3105 3105 3105 3104 3104 3104 3104 3103
3141 3141 3141 3140 3140 3140 3139 3138 3137 3137 3136 3136 3135 3135 3134 3134 3133 3133 3132 3132 3131 3130 3130 3129 3128 3127 3127 3127 3127 3126 3125 3125 3124 3123 3123 3122 3122 3121 3120 3120 3119 3118 3118 3118 3117 3117 3117 3117 3116 3116 3116 3115 3115 3114 3114 3114 3113 3113 3113 3112 3112 3112 3111 3111 3111 3111 3110 3110 3109 3109 3108 3108 3108 3108 3108 3108 3108 3107 3106 3106 3106 3105 3105 3105 3105 3105 3105 3105 3104 3104 3103 3103 3103 3103 3102 3102 3102 3101 3101 3100 3100 3100 3100
3138 3138 3138 3138 3137 3137 3136 3135 3134 3134 3133 3133 3133 3133 3132 3131 3131 3130 3129 3129 3128 3128 3127 3126 3125 3124 3124 3124 3123 3123 3123 3122 3121 3120 3119 3118 3118 3117 3117 3116 3116 3115 3115 3114 3114 3113 3113 3113 3113 3112 3112 3112 3111 3111 3111 3110 3110 3109 3109 3108 3108 3108 3108 3108 3108 3107 3106 3106 3105 3105 3105 3105 3105 3104 3104 3104 3104 3103 3103 3103 3102 3102 3101 3101 3101 3101 3101 3101 3100 3100 3100 3099 3099 3099 3098 3098 3098 3098 3097 3097 3097 3096 3096
3136 3135 3135 3134 3134 3133 3133 3132 3131 3131 3130 3130 3130 3129 3129 3128 3128 3127 3126 3126 3125 3125 3124 3123 3123 3121 3121 3120 3120 3120 3119 3119 3118 3117 3116 3115 3114 3113 3113 3113 3112 3112 3111 3110 3110 3110 3109 3109 3108 3108 3108 3108 3107 3107 3107 3106 3106 3105 3104 3104 3104 3104 3104 3104 3104 3103 3103 3102 3101 3101 3101 3101 3101 3100 3100 3100 3099 3099 3099 3099 3098 3098 3098 3097 3097 3097 3096 3096 3096 3096 3096 3095 3095 3095 3095 3094 3094 3094 3093 3093 3093 3093 3092
3133 3133 3133 3132 3131 3131 3130 3129 3128 3128 3127 3127 3127 3126 3126 3125 3125 3124 3123 3123 3122 3121 3121 3120 3119 3118 3118 3117 3116 3116 3116 3115 3114 3113 3112 3111 3110 3109 3109 3108 3108 3108 3107 3107 3106 3106 3105 3105 3104 3104 3104 3103 3103 3103 3102 3102 3101 3101 3101 3100 3100 3100 3100 3100 3100 3099 3098 3098 3097 3097 3097 3097 3096 3096 3096 3095 3095 3095 3095 3095 3095 3094 3094 3093 3093 3092 3092 3092 3092 3091 3091 3091 3091 3091 3091 3091 3090 3090 3090 3089 3089 3089 3088
3132 3131 3131 3130 3129 3129 3128 3127 3126 3125 3125 3125 3124 3124 3123 3123 3122 3121 3120 3119 3119 3118 3118 3117 3116 3115 3114 3113 3113 3112 3112 3111 3111 3110 3108 3108 3107 3106 3105 3104 3104 3103 3103 3103 3103 3103 3102 3101 3101 3100 3100 3099 3099 3098 3098 3097 3097 3097 3097 3097 3096 3096 3096 3095 3095 3095 3094 3094 3093 3093 3093 3093 3092 3092 3091 3091 3091 3091 3090 3090 3090 3090 3090 3089 3089 3088 3088 3087 3087 3087 3087 3087 3087 3087 3087 3086 3086 3086 3086 3086 3085 3085 3085
3131 3130 3129 3129 3128 3127 3126 3125 3124 3123 3123 3123 3122 3122 3121 3120 3119 3118 3118 3117 3116 3115 3114 3114 3113 3113 3112 3111 3110 3109 3108 3108 3107 3106 3105 3104 3103 3102 3101 3100 3099 3099 3099 3099 3099 3099 3098 3098 3097 3097 3096 3095 3094 3094 3094 3093 3093 3093 3093 3093 3092 3092 3092 3091 3091 3091 3090 3090 3090 3089 3089 3088 3088 3088 3087 3087 3086 3086 3086 3086 3086 3086 3085 3085 3085 3084 3083 3083 3083 3083 3083 3083 3083 3083 3083 3082 3082 3082 3082 3082 3081 3081 3081
3130 3129 3128 3128 3127 3126 3125 3124 3123 3122 3122 3121 3120 3120 3119 3118 3117 3117 3116 3115 3113 3113 3112 3111 3110 3110 3109 3108 3107 3107 3105 3104 3103 3103 3102 3101 3100 3099 3098 3097 3096 3096 3096 3095 3095 3095 3095 3094 3094 3093 3093 3091 3091 3090 3090 3090 3090 3089 3089 3089 3088 3088 3088 3087 3087 3087 3086 3086 3086 3085 3085 3084 3084 3083 3083 3083 3082 3082 3082 3081 3081 3081 3081 3081 3080 3080 3080 3079 3079 3079 3079 3079 3078 3078 3078 3078 3078 3078 3078 3078 3078 3077 3077
3129 3128 3127 3126 3126 3125 3124 3123 3122 3121 3120 3119 3119 3118 3117 3116 3116 3115 3114 3113 3112 3110 3109 3109 3108 3108 3107 3106 3105 3104 3103 3102 3101 3100 3099 3098 3098 3096 3094 3094 3093 3093 3093 3092 3091 3090 3091 3091 3091 3090 3089 3088 3088 3087 3087 3087 3086 3086 3085 3085 3085 3084 3084 3083 3083 3083 3083 3082 3082 3082 3081 3081 3080 3079 3079 3079 3078 3078 3078 3077 3077 3077 3077 3077 3076 3076 3076 3075 3075 3075 3075 3074 3074 3074 3074 3074 3074 3074 3074 3074 3073 3073 3073
3128 3127 3126 3125 3124 3123 3122 3121 3120 3119 3118 3118 3117 3116 3116 3115 3114 3113 3112 3111 3110 3108 3108 3107 3106 3105 3104 3103 3103 3102 3101 3099 3098 3097 3097 3096 3095 3093 3092 3091 3090 3090 3090 3089 3088 3087 3087 3086 3086 3086 3086 3086 3085 3085 3084 3083 3083 3083 3082 3082 3082 3081 3081 3080 3079 3079 3079 3079 3078 3078 3078 3077 3076 3076 3075 3075 3074 3074 3073 3073 3073 3073 3072 3072 3072 3072 3072 3072 3072 3071 3071 3071 3070 3070 3070 3070 3070 3070 3070 3070 3070 3070 3069
3125 3124 3123 3123 3122 3121 3120 3119 3118 3117 3116 3115 3115 3114 3114 3113 3112 3111 3110 3109 3108 3107 3105 3104 3103 3102 3101 3101 3100 3099 3099 3097 3096 3095 3094 3093 3093 3091 3089 3088 3088 3087 3086 3085 3084 3084 3085 3082 3080 3080 3082 3083 3083 3082 3081 3080 3080 3080 3080 3079 3079 3078 3078 3077 3076 3076 3075 3075 3075 3075 3074 3073 3073 3072 3071 3071 3070 3070 3069 3069 3069 3068 3068 3068 3068 3068 3068 3068 3068 3068 3067 3067 3066 3066 3066 3066 3067 3067 3067 3066 3066 3066 3066
3123 3122 3121 3120 3119 3118 3117 3116 3115 3114 3113 3113 3112 3112 3111 3111 3110 3109 3108 3107 3106 3104 3103 3102 3101 3099 3098 3098 3097 3096 3095 3094 3093 3092 3092 3091 3090 3089 3087 3086 3084 3083 3082 3082 3080 3080 3081 3079 3076 3074 3075 3078 3078 3078 3077 3077 3077 3077 3077 3076 3076 3075 3074 3074 3073 3073 3072 3072 3072 3071 3071 3070 3069 3069 3068 3067 3067 3066 3066 3065 3065 3064 3064 3064 3063 3063 3063 3064 3064 3063 3063 3063 3063 3063 3062 3062 3062 3063 3063 3063 3062 3062 3062
3120 3119 3118 3117 3116 3115 3114 3113 3113 3112 3111 3110 3109 3109 3108 3108 3107 3106 3105 3104 3103 3102 3100 3099 3098 3097 3095 3094 3093 3093 3091 3090 3089 3089 3088 3088 3087 3086 3084 3083 3082 3080 3079 3078 3077 3076 3076 3075 3073 3071 3071 3071 3071 3072 3073 3073 3073 3073 3072 3072 3072 3071 3071 3070 3070 3069 3069 3068 3068 3068 3067 3067 3066 3065 3065 3064 3063 3063 3062 3061 3061 3060 3060 3059 3059 3059 3059 3059 3059 3059 3059 3059 3059 3058 3058 3058 3058 3058 3058 3058 3058 3058 3058
3118 3117 3116 3115 3113 3112 3111 3110 3109 3108 3108 3107 3106 3106 3105 3104 3104 3103 3102 3101 3100 3098 3097 3096 3094 3093 3092 3091 3090 3089 3088 3087 3086 3085 3084 3084 3083 3083 3082 3081 3079 3078 3076 3074 3073 3072 3071 3068 3068 3068 3068 3067 3065 3065 3066 3068 3068 3068 3067 3067 3067 3067 3067 3066 3066 3065 3065 3064 3064 3063 3063 3062 3062 3061 3061 3060 3060 3059 3058 3058 3057 3056 3056 3055 3055 3055 3054 3055 3055 3055 3055 3054 3054 3054 3054 3054 3054 3054 3054 3054 3054 3054 3054
3116 3115 3114 3113 3111 3110 3109 3108 3107 3106 3105 3104 3103 3102 3102 3101 3101 3100 3099 3098 3096 3095 3093 3092 3091 3090 3089 3088 3086 3085 3085 3084 3083 3081 3080 3079 3079 3079 3078 3078 3076 3075 3073 3071 3070 3069 3067 3065 3064 3063 3063 3062 3061 3060 3060 3061 3061 3061 3062 3062 3062 3062 3062 3061 3061 3060 3060 3060 3059 3059 3058 3058 3057 3057 3056 3056 3056 3055 3054 3054 3053 3052 3051 3051 3050 3050 3050 3050 3050 3050 3050 3050 3050 3050 3050 3050 3049 3049 3049 3049 3049 3049 3049
3114 3113 3112 3110 3109 3108 3106 3105 3104 3103 3102 3101 3100 3099 3099 3098 3098 3097 3096 3094 3093 3092 3090 3088 3087 3086 3085 3084 3083 3082 3081 3081 3080 3078 3076 3074 3074 3074 3074 3074 3073 3072 3070 3068 3067 3065 3063 3062 3061 3059 3058 3057 3057 3056 3055 3055 3055 3055 3056 3056 3057 3057 3056 3056 3055 3055 3055 3055 3054 3054 3053 3053 3052 3052 3051 3051 3051 3050 3050 3049 3049 3048 3047 3046 3046 3045 3045 3045 3045 3045 3045 3045 3045 3045 3045 3045 3045 3045 3044 3044 3044 3044 3044
3112 3110 3109 3108 3107 3105 3104 3103 3102 3101 3099 3098 3097 3096 3096 3095 3095 3094 3093 3091 3090 3088 3087 3085 3084 3083 3081 3080 3079 3078 3077 3077 3076 3075 3073 3071 3069 3069 3070 3069 3069 3068 3066 3064 3063 3061 3060 3058 3057 3056 3054 3052 3052 3052 3051 3049 3049 3049 3050 3050 3051 3051 3050 3050 3050 3050 3049 3049 3049 3049 3048 3047 3047 3046 3046 3045 3045 3045 3044 3044 3044 3043 3043 3042 3041 3040 3040 3040 3040 3039 3039 3039 3039 3040 3040 3040 3040 3040 3040 3039 3039 3039 3039
3109 3108 3107 3105 3104 3103 3101 3100 3099 3098 3097 3096 3094 3093 3093 3092 3092 3090 3089 3088 3087 3085 3083 3082 3080 3079 3078 3077 3076 3074 3073 3073 3072 3071 3070 3068 3066 3065 3064 3064 3064 3063 3063 3061 3059 3058 3056 3055 3053 3052 3050 3048 3046 3046 3046 3046 3044 3043 3043 3043 3044 3044 3044 3044 3044 3044 3044 3044 3043 3043 3043 3042 3041 3041 3040 3040 3039 3039 3039 3038 3038 3038 3038 3037 3037 3036 3035 3035 3034 3034 3034 3034 3034 3034 3034 3034 3034 3034 3034 3034 3034 3034 3033
3107 3105 3104 3103 3101 3100 3099 3098 3096 3095 3094 3093 3092 3091 3090 3089 3088 3087 3086 3084 3083 3082 3080 3078 3077 3076 3074 3073 3072 3071 3070 3069 3068 3068 3066 3065 3063 3061 3060 3059 3058 3058 3058 3057 3056 3054 3053 3051 3050 3048 3047 3044 3043 3041 3040 3041 3041 3039 3038 3037 3037 3037 3037 3038 3039 3039 3039 3038 3038 3038 3037 3037 3036 3036 3035 3034 3034 3033 3033 3033 3033 3033 3032 3032 3032 3031 3030 3030 3029 3029 3029 3028 3029 3029 3029 3029 3029 3028 3028 3028 3028 3028 3028